GFSMW_sfc_rhum_108.txt.gz
RH
15 16 18 20 25 29 28 29 32 54 93 94 96 94 92 95 95 92 92 93 92 93 94 96 96 95 96 96 96 96 97 98 97 97 99 99 98 98 98 96 96 97 97
78 75 58 26 24 23 28 32 32 30 83 80 83 86 88 93 92 93 94 95 92 92 92 95 97 96 96 96 97 95 98 96 97 97 98 100 100 98 98 97 98 96 95
94 89 81 91 94 95 94 67 40 37 70 78 84 94 95 98 98 98 96 96 93 91 91 95 95 97 95 98 98 96 96 98 98 92 96 99 98 99 98 97 96 96 98
85 82 80 80 85 89 92 93 93 54 73 86 88 84 86 88 86 87 88 92 94 94 92 94 95 96 96 97 97 96 95 94 97 98 94 94 92 98 99 99 99 97 97
79 79 77 77 74 73 81 87 90 91 63 87 83 88 90 81 85 91 89 90 93 95 94 94 96 97 97 96 96 98 96 95 93 94 99 96 97 98 98 99 100 99 97
75 76 74 74 77 74 75 81 82 92 64 87 87 91 88 86 95 92 95 94 96 96 96 95 95 96 96 96 96 96 96 95 93 93 92 92 94 95 96 98 96 94 98
84 84 84 85 84 83 80 78 78 88 92 92 92 92 87 90 90 91 90 93 96 98 98 96 96 95 95 95 95 96 96 96 96 95 94 89 88 83 84 89 96 97 99
81 84 92 86 87 86 87 85 84 86 88 96 87 92 94 96 95 92 89 90 92 93 93 96 92 93 95 95 96 96 96 96 97 95 94 93 89 84 79 83 93 99 98
87 86 86 90 88 89 88 92 88 86 89 92 96 97 96 96 96 96 93 91 94 96 97 95 94 96 96 97 98 97 98 97 96 96 94 93 88 86 83 78 81 84 95
94 92 89 94 91 89 89 90 88 88 89 92 96 98 98 97 97 97 97 96 96 97 97 96 97 98 98 98 98 98 97 98 98 97 97 96 92 92 88 89 86 87 87
96 97 96 92 99 86 89 87 89 89 92 91 93 98 99 97 98 98 98 98 98 98 98 98 98 98 98 99 99 98 97 98 95 94 93 91 91 94 92 91 91 88 90
94 97 97 87 88 85 83 86 89 91 91 91 94 99 99 98 98 98 98 98 99 98 98 98 98 98 98 99 98 98 97 97 96 92 93 94 94 95 93 92 92 90 89
84 82 80 80 83 82 84 82 86 88 90 89 91 94 97 99 99 99 98 99 99 99 99 99 99 99 99 99 98 98 98 98 96 93 94 93 93 97 97 94 90 86 84
81 81 78 80 81 82 83 84 82 84 87 84 89 93 94 97 99 98 98 98 97 98 98 97 97 97 97 98 96 94 97 97 96 94 93 93 93 92 93 94 90 87 90
81 82 84 86 84 84 82 79 80 82 84 86 88 93 91 90 94 96 98 99 98 98 97 98 98 97 92 89 95 95 97 98 97 92 92 91 94 98 94 92 93 91 92
81 80 81 84 89 87 86 82 82 83 83 90 93 91 91 89 91 92 90 92 91 91 91 93 93 94 87 97 98 98 99 96 97 97 97 96 100 99 100 100 99 94 92
87 87 91 93 93 93 90 89 82 85 83 91 97 95 97 98 90 86 88 92 94 92 94 94 93 95 92 96 98 99 94 96 97 98 97 98 99 100 99 100 100 100 100
87 87 91 91 93 91 89 84 78 80 85 86 91 94 98 98 93 88 91 92 92 94 95 95 94 95 92 96 96 97 94 96 96 97 98 98 98 98 99 98 98 98 98
95 96 95 94 90 92 91 83 85 82 84 89 90 90 90 95 96 94 94 95 91 92 94 93 94 94 95 96 96 93 94 96 98 96 97 98 98 99 96 96 98 99 99
96 96 94 88 90 94 90 90 90 89 93 94 94 90 91 92 93 95 96 97 94 95 91 90 91 92 94 94 94 93 95 97 98 97 97 98 98 98 98 98 96 99 100
96 94 93 94 95 94 90 92 91 95 95 92 91 92 92 95 97 95 96 94 96 96 96 95 94 92 95 93 91 91 94 96 97 97 97 97 94 96 96 97 99 98 98
94 94 94 95 94 93 92 94 96 94 90 89 91 91 92 92 92 92 94 94 93 93 95 96 96 94 95 93 92 90 92 90 93 97 97 96 92 92 93 94 95 95 96
96 94 96 93 93 93 94 96 97 93 88 90 91 92 90 92 91 92 92 92 90 91 94 93 95 96 96 97 95 94 94 91 93 95 93 90 89 89 92 91 91 91 93
95 93 92 94 95 93 93 96 93 88 89 91 90 92 92 92 92 90 90 90 91 92 92 92 94 94 94 95 96 96 96 95 94 95 95 96 93 91 91 92 94 95 95
92 91 92 92 93 91 91 91 90 90 86 90 91 91 90 92 93 94 93 92 95 91 93 95 94 94 94 97 95 95 96 96 97 95 94 94 94 93 94 94 94 94 94
78 80 78 79 83 84 88 87 83 83 89 90 89 89 88 92 92 94 92 78 80 80 80 81 86 94 93 91 92 92 92 92 93 92 94 95 96 95 94 94 94 94 94

GFSMW_sfc_rhum_111.txt.gz
RH
16 18 47 57 48 36 34 28 31 42 53 69 83 86 89 84 81 80 79 79 81 85 88 88 94 94 94 95 95 94 94 94 91 92 94 92 89 90 92 92 93 95 96
28 55 62 66 70 72 72 70 60 37 36 52 65 67 74 81 81 86 86 83 85 84 89 88 92 93 94 96 95 95 97 94 94 92 89 96 86 88 87 89 91 91 96
72 68 65 66 67 68 70 69 68 69 63 38 54 69 76 83 94 94 92 90 86 83 90 88 90 92 91 94 94 94 94 96 97 88 84 94 92 90 88 94 94 94 97
68 65 66 66 66 67 67 67 68 68 65 64 46 69 68 72 75 79 82 90 90 86 86 88 88 92 91 93 93 92 92 92 96 96 90 75 70 82 93 91 96 94 97
71 72 70 69 67 68 71 72 70 69 67 71 60 68 71 66 64 75 83 88 91 87 84 89 90 92 92 93 94 95 94 91 90 91 94 87 90 85 86 84 96 98 96
72 70 68 67 72 69 75 76 76 72 71 75 69 72 74 69 69 76 87 88 92 93 93 89 91 91 92 93 93 93 94 95 91 89 85 87 88 94 92 89 90 87 95
75 79 76 77 80 81 84 82 80 81 78 81 68 73 75 75 76 76 77 83 90 96 94 93 94 92 91 92 92 93 95 94 95 91 88 85 81 79 80 84 88 94 94
74 82 79 81 88 88 89 88 87 86 84 87 88 71 77 78 76 75 74 78 83 89 90 93 94 93 94 92 92 90 95 94 95 92 91 89 85 85 82 81 86 98 97
83 89 81 81 82 87 91 91 89 88 88 91 92 84 80 86 84 80 79 82 81 89 95 91 93 93 94 93 91 94 96 96 95 95 94 92 89 89 85 80 76 83 96
90 93 92 94 85 87 91 89 88 90 89 90 92 93 88 90 89 88 83 81 83 87 92 92 91 94 95 94 95 95 95 97 97 96 96 95 92 91 88 87 84 81 89
95 96 96 96 98 96 92 87 85 87 91 90 91 95 97 94 91 93 86 82 89 91 91 87 88 93 98 97 98 97 97 98 97 97 95 94 91 92 91 90 83 89 90
94 96 97 97 96 95 96 90 87 88 89 90 91 94 95 97 97 98 97 95 94 92 90 92 96 98 98 97 98 98 98 98 94 89 92 92 93 93 88 90 91 87 88
85 89 94 92 93 86 86 87 86 88 87 88 92 93 95 96 98 98 98 98 98 98 97 94 95 96 98 98 99 98 98 96 96 94 93 86 84 89 93 93 94 91 87
86 84 82 85 81 80 86 95 85 89 86 86 89 93 94 95 96 97 97 98 98 98 97 96 96 97 96 93 93 91 93 92 90 90 88 89 90 94 93 93 93 93 94
81 88 90 91 84 83 81 80 83 85 95 86 89 93 92 90 92 93 93 93 93 92 91 92 91 91 88 88 94 91 92 90 89 90 89 88 86 91 92 90 93 93 95
85 86 85 84 87 88 91 85 84 87 83 90 92 88 90 90 92 92 92 92 92 91 90 92 92 92 83 96 97 98 97 95 93 92 86 84 97 99 100 100 100 96 94
87 88 89 89 91 92 91 92 90 88 84 90 95 96 93 97 100 90 91 92 96 92 95 93 90 92 90 96 96 97 92 94 94 94 94 89 83 96 98 100 100 100 100
87 83 82 83 89 81 86 77 72 83 91 84 90 95 95 95 99 99 97 99 96 97 92 92 90 90 88 94 96 96 92 94 94 95 94 95 95 95 98 98 98 98 98
92 94 92 88 86 88 87 78 78 77 80 87 89 92 95 96 96 96 97 97 94 92 92 90 90 90 91 91 93 91 92 93 96 93 93 94 96 98 94 96 99 100 100
93 93 92 85 90 94 87 90 88 87 91 94 93 89 88 91 96 97 98 98 94 96 92 92 92 90 91 88 89 90 90 94 94 94 93 94 95 96 96 94 95 100 100
93 91 92 95 95 93 90 93 92 96 94 91 89 91 91 92 93 92 93 99 98 95 97 97 96 93 95 94 89 88 93 94 92 94 94 94 92 93 93 94 99 99 100
91 92 94 94 94 93 91 92 95 92 90 89 91 92 92 93 91 91 91 90 92 92 92 91 90 91 96 94 95 94 91 87 90 95 94 94 88 90 92 93 94 93 93
91 88 94 92 91 92 93 93 96 87 87 88 91 93 91 89 91 91 91 89 90 89 91 89 90 91 90 94 91 94 93 94 94 95 95 89 88 87 91 91 90 92 92
86 82 82 89 92 90 91 94 91 90 86 86 88 90 92 91 92 86 86 88 88 90 90 90 89 90 89 91 91 92 93 88 90 90 94 94 93 91 93 94 94 94 94
81 80 81 82 85 82 87 89 87 85 84 83 83 85 81 87 84 87 88 86 93 90 90 91 90 94 94 96 88 89 92 92 92 86 85 89 89 91 92 93 93 94 93
59 60 63 66 68 68 74 70 67 69 75 74 67 74 73 74 72 73 72 72 74 75 78 76 82 86 81 79 80 82 84 83 77 82 87 91 91 91 91 92 93 93 92

GFSMW_sfc_rhum_114.txt.gz
RH
29 33 39 39 41 42 45 44 49 48 31 26 44 46 58 58 55 52 53 55 60 68 65 62 70 90 91 88 85 89 86 84 75 82 82 72 73 70 59 57 58 62 64
42 44 44 45 48 49 49 51 49 48 48 33 25 40 44 52 53 51 56 58 62 64 65 66 75 88 90 93 89 90 94 92 86 88 82 91 78 71 67 63 65 74 78
48 47 48 49 50 52 53 52 51 50 50 52 43 27 42 46 53 63 68 64 62 65 71 72 81 90 87 93 91 88 90 94 94 75 64 77 69 57 58 70 66 76 88
42 43 47 50 52 53 54 55 55 54 52 52 51 50 31 43 50 58 65 64 68 69 69 77 82 87 88 90 92 84 84 87 94 93 69 56 50 66 70 66 72 76 82
44 45 46 48 47 50 54 59 59 58 58 58 57 55 46 40 41 52 60 66 78 81 79 82 82 87 84 90 90 90 88 86 82 88 84 72 62 64 79 67 64 73 72
46 46 45 47 48 48 55 60 63 62 64 68 66 65 63 48 43 46 56 61 79 89 86 86 85 86 87 89 91 89 87 86 86 84 67 68 71 74 79 78 66 64 62
53 55 54 52 56 59 63 66 67 72 71 76 75 74 69 60 54 47 52 61 83 89 91 89 89 88 86 87 90 91 88 88 90 81 72 61 62 59 59 67 71 71 65
57 60 64 63 63 67 70 73 77 81 78 80 81 79 71 55 50 49 46 54 77 80 83 88 88 87 84 88 88 92 92 91 92 85 80 67 66 59 58 64 68 91 86
64 66 65 66 66 76 75 81 87 83 84 85 87 88 77 68 56 56 58 61 73 78 85 89 90 90 88 89 92 94 95 94 93 86 86 80 69 64 67 67 67 79 89
76 78 77 82 74 82 83 82 90 85 86 88 89 88 87 85 61 74 78 73 72 71 76 86 86 91 91 92 94 96 92 92 93 87 91 89 83 83 78 81 82 83 84
89 98 98 92 95 91 91 90 90 89 89 88 91 93 93 78 67 81 82 74 76 74 81 82 89 90 93 92 92 93 92 93 88 91 93 91 88 92 93 92 89 87 88
81 96 99 98 99 97 97 97 95 94 88 87 90 94 93 95 88 84 82 84 80 84 85 89 93 92 92 90 92 96 94 91 95 96 97 95 90 91 80 80 89 86 84
73 83 91 95 97 93 97 95 91 96 86 85 89 93 94 94 96 96 97 97 97 98 98 96 96 95 94 93 97 97 97 96 96 93 89 82 74 76 80 85 88 88 85
82 82 84 91 92 94 95 97 90 89 88 86 87 93 94 94 94 94 95 96 96 97 96 94 92 91 90 90 91 94 96 94 91 89 80 73 74 76 80 83 88 89 91
76 81 87 92 92 92 90 87 87 92 97 88 88 92 91 89 91 93 93 93 93 92 89 88 88 88 87 89 92 87 88 88 81 76 71 73 87 96 95 90 88 87 94
83 82 85 86 88 87 92 87 90 93 87 94 96 88 95 91 90 93 92 91 91 90 90 90 90 92 86 96 97 96 93 90 89 89 87 82 88 88 94 98 100 99 94
85 83 86 86 88 92 91 91 92 94 92 94 96 95 95 99 98 95 98 95 95 93 94 93 92 94 93 96 96 96 91 92 93 93 91 87 78 88 84 89 98 99 98
80 78 78 80 86 75 76 68 63 72 88 89 94 95 95 95 97 96 96 98 97 96 93 95 95 95 92 94 95 93 90 92 93 92 91 92 92 92 94 89 91 96 96
87 90 84 82 82 82 78 71 72 70 78 84 88 92 96 97 96 97 98 98 96 95 96 94 95 93 92 91 90 86 88 90 92 88 89 88 91 95 95 90 98 100 100
87 87 84 79 87 90 78 90 88 87 91 92 91 86 86 92 95 98 99 99 99 98 95 95 95 91 93 93 93 90 88 92 89 88 89 89 90 91 93 95 97 100 100
85 83 85 90 90 89 82 88 91 95 92 91 91 91 91 91 93 94 97 94 94 94 96 98 97 97 97 96 94 93 92 94 90 92 95 95 90 89 89 91 97 98 98
80 82 86 90 89 90 88 89 93 87 86 89 91 90 91 91 92 92 95 91 94 94 99 98 90 87 93 88 87 86 88 93 95 96 96 97 90 88 89 92 90 90 89
79 76 84 86 88 87 88 90 90 84 82 86 88 87 87 89 89 90 91 87 88 87 88 87 89 90 88 91 84 83 83 87 90 90 94 94 93 87 90 90 88 90 92
72 68 67 78 86 85 82 83 82 81 79 81 80 80 82 82 84 82 82 85 88 88 89 89 90 89 88 90 90 92 94 85 87 88 92 90 91 91 94 94 94 94 95
66 64 64 63 67 68 71 72 72 70 70 69 74 72 66 72 70 75 73 72 84 81 81 84 86 91 92 94 84 87 88 87 85 89 89 87 84 83 83 85 88 88 88
38 38 40 43 43 45 53 48 50 54 60 63 56 61 60 61 59 60 64 66 68 69 72 73 77 80 77 77 75 75 75 74 74 80 85 88 88 85 83 83 83 85 87

GFSMW_sfc_rhum_117.txt.gz
RH
24 27 31 33 36 38 40 38 42 44 41 38 27 31 47 49 52 58 54 54 55 63 68 60 65 74 78 80 78 70 75 78 74 77 70 77 74 71 61 50 47 62 62
27 29 32 35 40 41 43 45 44 43 43 38 36 30 30 36 44 49 55 56 56 60 62 64 57 73 76 88 85 83 82 73 74 76 81 88 80 66 59 52 49 58 54
33 33 33 35 38 41 45 45 46 46 47 48 43 39 39 35 43 53 54 55 57 60 65 64 61 62 74 78 86 88 86 90 85 72 68 71 60 51 60 66 63 68 77
34 34 36 37 39 40 43 45 47 49 48 50 50 52 44 37 33 47 54 53 60 60 62 66 66 67 74 78 82 82 86 86 92 89 68 61 45 47 55 66 64 60 72
37 38 39 40 38 39 43 48 51 52 51 53 58 58 56 47 42 40 54 59 61 64 63 67 70 73 76 78 81 86 89 84 81 86 76 70 61 60 58 68 68 58 60
39 40 40 43 43 43 47 52 54 53 54 57 61 67 69 61 53 50 47 60 61 63 69 69 75 78 80 80 79 85 87 87 84 83 74 71 70 61 69 69 66 74 65
44 45 47 49 52 53 54 55 56 59 58 61 63 67 70 70 65 59 55 59 63 66 72 76 84 80 80 80 81 89 88 87 88 85 83 65 62 57 59 64 65 61 52
50 53 57 57 60 62 62 64 64 66 63 67 68 70 73 74 65 59 54 59 54 61 70 76 82 83 79 81 85 86 88 89 89 87 84 70 65 66 58 66 63 74 65
62 62 61 64 66 69 71 72 74 73 73 78 81 81 79 80 76 66 60 54 57 56 70 76 85 86 86 85 87 89 90 90 90 88 86 78 71 70 68 65 68 66 77
68 70 72 75 74 82 79 75 79 76 78 82 84 83 84 83 80 73 65 60 58 58 70 77 87 90 90 89 89 90 88 91 90 89 89 86 78 74 74 69 70 73 76
76 94 96 84 93 87 85 82 86 81 84 87 87 89 89 89 87 79 71 64 64 62 64 76 87 89 90 91 91 90 90 92 92 91 92 88 81 84 89 90 80 80 81
69 85 98 98 100 99 99 96 95 91 96 93 88 91 91 91 91 87 68 67 67 64 65 70 76 80 92 93 94 93 93 94 87 93 94 91 87 87 88 93 93 92 89
64 68 86 94 99 94 97 96 97 97 98 90 90 90 92 92 93 94 94 95 79 78 87 87 96 96 97 97 96 93 91 91 93 92 94 90 92 96 94 89 83 82 82
74 73 81 89 92 96 98 97 96 97 98 94 87 91 91 91 92 92 92 93 92 92 93 92 93 93 92 92 94 98 98 98 98 96 96 93 90 88 90 83 84 79 83
78 83 88 89 86 90 96 96 96 97 98 98 92 93 89 87 89 91 91 91 92 91 92 93 93 92 92 94 97 96 95 95 93 90 83 90 92 97 94 84 87 90 93
85 84 82 75 82 88 96 92 95 97 96 95 97 95 94 89 89 90 90 89 90 90 90 92 92 95 93 97 98 95 93 90 90 91 88 83 87 87 93 92 97 98 96
79 76 81 84 84 85 78 84 89 96 95 95 97 97 98 97 96 93 93 93 94 91 93 93 91 94 94 97 96 95 92 93 92 92 90 82 79 89 83 86 94 94 96
77 76 76 75 77 66 69 64 60 69 83 85 92 96 95 96 98 97 96 96 96 95 95 95 94 93 94 94 98 98 96 99 92 90 90 90 89 90 93 89 86 94 97
78 82 76 71 74 71 66 66 67 68 78 85 86 87 91 95 97 97 98 98 98 96 97 95 94 94 94 93 92 92 95 95 95 94 94 88 90 91 93 89 98 100 100
80 81 80 70 83 87 66 86 84 83 90 90 87 81 82 88 92 94 96 97 99 99 98 96 97 95 96 97 93 93 92 94 93 90 91 92 91 89 90 94 97 99 100
79 78 82 88 90 89 83 87 87 91 90 87 86 86 86 87 87 87 90 93 91 89 91 92 92 94 94 96 96 95 97 97 95 95 96 96 91 92 90 90 96 96 94
75 78 84 89 88 85 86 88 90 85 84 83 84 86 84 89 86 86 87 87 86 87 86 87 86 85 88 83 85 86 87 89 92 96 95 96 91 92 92 92 91 87 87
74 72 82 84 85 82 83 86 85 81 81 81 82 83 85 84 84 86 88 84 85 83 86 82 86 86 85 86 80 81 83 86 92 94 89 83 82 82 88 86 89 91 93
60 54 57 74 81 80 77 78 77 77 77 80 80 82 80 86 85 77 79 83 86 86 87 87 88 87 86 88 87 86 89 85 89 92 92 87 87 81 85 87 89 96 95
54 50 51 49 54 58 66 70 71 70 75 75 79 80 68 79 77 80 74 73 82 77 82 86 86 90 91 88 77 78 83 87 88 87 87 86 84 84 84 84 83 84 84
28 28 30 32 32 38 45 42 45 48 57 58 56 62 61 62 62 62 64 65 67 66 66 65 72 80 71 69 70 65 64 64 68 76 86 90 89 88 85 87 86 84 83

GFSMW_sfc_rhum_123.txt.gz
RH
38 39 42 44 45 46 47 47 49 52 54 57 61 62 65 61 68 75 68 84 78 77 88 84 96 92 84 89 89 86 93 97 94 96 97 97 95 94 92 89 86 81 79
42 40 43 46 48 49 52 52 52 53 54 54 56 59 60 60 60 59 68 69 73 82 82 88 80 90 85 87 92 85 90 91 93 93 95 99 97 96 91 94 87 79 86
48 46 46 50 50 54 55 55 55 56 56 54 55 57 59 62 67 67 66 66 66 75 82 77 79 82 89 83 81 88 85 92 95 87 94 98 97 98 98 92 86 86 87
49 48 51 54 55 57 56 56 57 58 53 57 60 64 67 72 68 70 68 68 72 71 73 76 79 77 84 88 82 86 87 88 90 92 76 88 88 93 98 96 86 88 92
55 55 56 57 55 56 59 60 60 59 58 59 62 66 69 66 65 67 70 71 70 73 71 79 76 86 89 88 88 80 95 88 82 84 85 86 95 92 95 98 98 96 91
61 62 60 59 63 62 63 64 64 64 62 64 64 68 70 68 68 68 74 74 76 76 73 74 83 78 86 87 86 89 87 91 92 86 82 83 80 87 96 96 96 93 96
67 68 65 67 68 69 69 69 66 66 67 68 68 69 68 68 69 70 73 75 78 82 76 77 78 87 74 80 85 91 92 96 98 92 88 83 80 75 79 93 95 97 95
67 74 74 77 78 76 76 75 77 77 72 75 76 73 71 73 73 72 72 74 75 78 78 80 80 80 83 79 80 88 92 94 95 89 87 82 81 84 82 82 88 96 96
80 86 83 82 83 82 82 84 85 82 80 83 85 83 79 78 79 76 74 75 74 71 78 80 80 80 81 81 78 83 85 90 90 89 91 87 80 77 82 91 92 86 94
90 89 89 88 87 89 85 91 86 85 84 87 92 89 85 81 81 81 81 79 78 79 80 84 83 82 80 81 83 81 76 81 94 94 92 88 82 84 88 94 95 94 88
95 94 93 91 91 92 93 97 96 91 90 95 96 92 88 85 83 84 85 88 88 88 83 82 86 83 86 90 93 93 85 86 93 94 90 88 85 86 92 92 94 96 95
95 95 96 94 94 96 97 99 96 94 98 96 96 96 88 86 87 88 89 89 91 92 90 87 91 88 91 92 90 89 79 79 92 94 93 90 87 90 91 97 95 94 96
85 90 91 93 96 96 97 98 97 97 98 98 97 97 94 91 92 91 90 89 89 90 90 90 92 92 94 94 97 83 80 88 89 91 93 90 90 92 93 99 99 99 99
88 92 90 94 93 96 97 97 96 97 98 97 98 98 97 97 94 90 89 90 88 88 87 89 89 90 90 91 92 95 93 87 89 95 97 97 98 97 96 98 98 99 99
89 93 93 93 93 89 87 88 93 96 97 95 96 98 99 97 97 93 88 85 89 88 85 86 88 88 88 92 94 92 95 95 95 95 91 95 96 98 99 97 98 97 98
81 83 81 76 80 76 81 76 81 90 90 96 96 96 96 98 98 97 96 92 90 93 95 91 91 94 96 98 98 94 97 94 94 95 94 91 95 97 98 97 97 98 98
81 77 79 82 87 84 79 81 80 81 80 85 85 88 95 96 97 98 96 96 96 94 95 96 94 96 97 97 99 95 97 97 96 96 94 93 92 96 96 97 96 98 98
81 80 84 83 88 83 79 76 75 75 79 76 84 81 86 89 90 92 94 97 96 96 96 96 96 94 98 98 97 96 97 94 94 95 96 96 97 98 95 93 93 95 98
91 94 92 88 87 88 83 80 82 79 80 78 77 77 78 87 89 91 91 91 92 92 93 93 92 93 94 92 97 94 96 96 97 96 96 95 96 94 96 95 96 96 97
95 96 94 88 90 91 86 93 88 88 89 90 83 77 72 78 85 90 90 90 88 91 88 89 89 87 92 88 91 93 92 93 93 95 96 98 98 100 94 94 93 95 98
93 94 94 96 96 93 92 89 92 90 92 88 88 84 82 80 82 80 84 86 87 85 86 87 88 89 89 86 84 86 94 95 93 94 95 96 89 88 88 91 96 97 97
93 92 95 94 93 91 93 89 86 92 89 92 90 89 87 87 85 85 84 83 84 86 86 86 84 84 86 78 73 77 83 86 91 95 93 89 81 80 78 85 85 87 93
93 94 91 92 91 88 88 84 87 90 87 86 91 93 89 90 89 88 87 84 83 85 87 87 88 87 83 85 75 70 75 85 87 85 80 75 75 77 84 77 80 86 91
85 87 87 88 85 88 84 86 82 84 90 84 90 90 93 93 93 91 88 87 86 86 89 90 90 88 84 84 84 82 82 80 84 83 83 81 79 80 81 84 84 89 91
82 78 76 75 80 80 85 84 79 81 82 91 85 90 84 90 97 97 94 88 84 77 82 88 90 90 86 81 72 73 79 81 81 82 82 84 84 84 85 86 84 85 85
50 47 54 58 61 65 72 70 68 69 78 81 80 82 85 86 84 87 85 81 77 75 67 60 73 86 65 63 64 67 66 67 70 80 87 91 91 92 90 89 90 88 87

GFSMW_sfc_rhum_129.txt.gz
RH
55 55 55 58 59 58 60 59 61 61 62 65 67 63 64 64 72 63 69 82 86 87 90 96 95 94 93 90 97 95 96 98 97 99 99 99 98 98 93 87 91 94 93
63 58 59 61 63 63 64 63 63 64 62 62 64 65 66 65 64 67 74 75 81 82 77 86 90 91 95 95 94 97 95 94 98 97 98 100 98 98 94 94 90 91 92
69 65 63 64 67 70 71 68 69 67 66 64 64 65 64 65 68 67 68 67 67 73 83 84 84 88 94 97 92 93 95 95 95 96 94 99 97 92 98 95 93 93 93
69 69 70 72 74 75 75 74 72 69 65 68 71 74 77 80 72 72 69 68 70 73 75 79 79 85 88 95 95 91 91 93 94 96 94 88 92 96 100 99 93 92 94
77 78 77 76 75 78 76 66 62 68 69 70 72 74 78 78 76 76 75 72 70 72 73 79 88 88 87 87 93 93 93 93 90 92 93 91 90 95 98 96 96 96 88
82 80 77 77 80 72 66 63 71 74 64 66 67 70 73 75 77 77 80 80 77 75 73 74 81 87 92 90 94 94 92 92 92 88 85 82 85 89 92 98 98 92 85
86 89 89 77 74 73 69 76 77 70 67 66 68 68 71 76 84 83 82 80 80 77 71 77 85 86 83 88 88 89 94 97 96 92 87 81 81 89 86 89 87 99 97
90 90 85 75 76 72 77 84 81 79 75 78 78 74 76 86 85 81 81 82 81 79 77 76 74 78 84 86 88 91 88 89 98 95 93 91 95 97 98 97 97 97 98
94 94 79 78 77 80 83 88 86 84 86 88 88 85 87 93 94 89 83 82 80 80 83 82 81 77 77 80 90 93 91 92 96 96 96 96 95 93 94 89 94 96 91
94 95 83 89 84 87 88 89 91 94 93 86 84 85 93 94 95 89 88 87 86 85 87 88 90 86 83 84 86 88 91 91 90 96 98 97 96 93 89 90 89 94 96
97 98 96 93 92 92 92 96 96 93 87 88 87 91 95 96 95 95 93 91 88 87 87 87 89 90 90 90 90 91 86 92 92 96 97 96 93 94 91 89 87 90 96
96 97 96 96 94 94 97 97 93 92 92 90 92 95 95 97 96 96 95 91 90 88 87 87 87 88 89 90 93 94 92 96 95 93 97 96 95 93 89 90 92 92 94
94 96 95 94 93 91 91 92 90 92 92 95 95 94 95 96 96 95 95 91 90 88 86 86 89 88 90 89 90 93 96 95 95 95 97 98 95 94 93 92 93 92 93
97 91 90 91 91 91 90 90 88 87 87 94 96 95 96 96 97 96 95 93 87 88 87 85 87 88 87 88 88 88 91 91 92 94 94 94 95 97 97 94 94 88 93
82 83 87 89 89 87 87 84 86 87 86 87 89 96 96 95 93 95 90 88 90 89 87 89 88 89 88 88 92 90 92 91 91 92 90 94 93 95 97 94 97 98 94
75 73 74 74 79 82 85 80 85 88 83 87 86 86 87 89 89 89 88 89 88 88 89 93 94 96 97 97 92 89 91 90 92 94 92 91 95 92 94 94 95 96 98
71 73 79 81 84 88 80 84 83 83 82 84 84 85 84 87 89 87 87 89 92 90 91 90 93 95 96 98 97 94 91 92 93 93 93 92 92 94 90 91 92 96 98
68 74 86 84 89 83 82 76 75 77 79 78 83 83 86 86 87 87 90 90 90 92 93 92 89 88 87 87 94 94 96 95 94 95 94 95 95 96 95 92 93 95 96
94 98 97 91 90 88 82 80 83 78 79 81 81 80 84 86 87 90 90 91 90 90 91 92 88 88 83 78 83 88 91 92 94 94 95 96 97 96 96 95 94 93 96
96 96 96 90 92 94 86 93 95 91 92 92 86 81 77 85 87 88 90 89 89 90 88 89 92 79 87 72 73 84 88 92 91 91 92 88 87 86 87 94 94 94 97
92 92 93 95 97 96 93 94 95 98 98 93 88 88 90 86 87 84 86 89 88 87 87 87 88 88 79 80 71 74 89 92 90 91 92 92 83 83 84 85 93 94 93
90 94 92 95 96 94 92 95 96 97 94 96 96 96 94 95 95 91 87 87 88 88 87 86 84 84 85 73 74 72 74 80 89 94 89 85 78 82 79 84 83 83 87
92 90 92 94 95 94 96 96 98 95 93 94 96 99 96 96 96 94 88 86 89 87 90 87 88 86 84 85 76 75 74 77 86 83 79 76 77 79 85 79 82 88 90
85 83 88 94 96 97 95 97 97 96 94 95 96 95 96 94 96 96 88 85 86 91 88 92 91 89 85 85 83 84 88 86 85 83 83 81 81 79 82 85 86 87 90
80 81 83 84 92 94 95 96 94 93 88 90 93 94 89 95 94 91 84 84 81 76 86 90 92 90 88 81 70 73 80 85 84 82 81 85 85 86 86 86 85 86 85
71 73 73 74 79 82 86 84 74 80 84 77 80 90 88 90 88 94 90 69 63 61 61 60 72 87 65 62 63 65 64 68 71 79 87 89 91 92 91 90 89 86 87

GFSMW_sfc_rhum_132.txt.gz
RH
62 58 58 60 63 65 68 67 70 70 68 68 72 67 67 68 68 65 70 78 74 85 89 90 92 92 95 93 91 92 97 94 93 94 98 98 97 98 92 90 94 92 92
67 62 62 66 71 72 75 74 72 71 68 69 71 70 70 69 68 68 68 72 77 74 71 80 89 91 91 94 92 94 92 91 90 97 92 95 98 98 95 95 92 91 89
77 73 69 74 77 80 82 74 70 68 69 70 70 71 71 71 73 73 72 69 69 74 78 81 85 88 91 92 93 94 89 89 90 88 94 96 92 97 98 94 94 93 95
77 76 77 79 82 82 77 67 66 71 67 67 71 72 74 78 74 77 74 74 75 75 76 77 79 84 86 89 91 88 96 91 89 93 97 93 97 96 99 99 93 94 93
84 84 84 84 82 72 65 72 68 69 62 62 64 69 72 71 70 71 71 69 70 75 77 79 82 86 89 90 90 91 90 93 91 87 91 96 93 97 97 95 100 97 87
86 84 82 73 69 64 69 76 73 68 66 72 69 66 70 69 70 70 73 79 76 75 74 75 80 84 86 88 90 92 92 92 90 86 85 88 92 88 96 91 92 92 92
89 94 83 81 73 77 84 79 77 80 76 73 76 77 78 80 82 81 83 81 80 79 77 77 81 78 74 86 86 91 89 92 95 86 84 85 89 88 88 89 82 89 95
92 96 81 88 80 85 84 79 84 78 75 74 77 78 79 86 88 83 87 86 83 81 78 81 83 83 80 77 82 92 92 88 90 92 92 88 82 91 88 96 94 95 98
95 96 85 91 90 84 90 90 84 80 78 82 81 78 82 94 95 94 94 91 86 81 82 86 88 87 87 83 84 91 85 92 94 95 91 92 93 94 88 87 89 94 98
94 96 95 94 91 91 90 91 91 87 87 87 81 82 84 96 95 95 96 96 94 90 88 88 88 88 91 89 86 88 88 92 93 91 88 91 91 95 95 95 95 95 92
98 98 97 94 94 93 91 93 93 91 90 86 90 92 94 96 95 95 96 96 96 95 90 88 88 89 90 91 92 91 90 91 90 91 92 85 83 95 98 98 93 95 92
96 98 97 96 95 96 92 92 90 90 91 89 94 95 95 94 95 96 95 96 95 96 90 87 86 87 88 89 91 93 93 93 93 95 91 83 87 93 98 98 96 94 92
93 96 94 96 97 95 93 93 90 90 89 93 95 95 94 95 96 96 96 94 93 96 95 88 90 88 89 89 89 89 90 92 93 93 93 95 94 96 95 95 96 93 91
93 91 94 93 92 92 92 93 91 90 89 88 89 93 95 96 96 96 95 94 91 92 93 95 92 89 87 87 86 87 90 90 91 93 93 93 94 96 97 96 98 94 94
82 83 88 91 87 86 91 85 89 89 88 88 89 90 88 88 89 90 90 89 92 92 88 85 87 90 92 93 88 86 89 90 91 92 88 94 93 93 95 94 97 96 98
75 73 72 72 76 78 82 78 86 89 85 89 89 88 87 88 89 89 88 88 87 89 88 89 89 94 94 90 92 88 90 89 91 94 90 86 91 89 90 90 93 95 97
70 70 76 80 82 86 78 86 81 83 83 87 87 88 87 88 90 88 88 91 92 90 89 89 86 86 90 84 84 87 95 94 95 95 92 89 88 89 86 86 87 91 93
67 72 82 81 88 84 84 76 72 74 78 79 86 86 89 88 89 90 91 90 91 92 92 90 89 85 82 75 80 81 89 91 94 96 96 95 94 95 93 90 91 92 95
95 98 96 90 90 89 83 80 80 77 77 80 82 81 86 89 89 92 93 91 90 91 91 90 88 89 82 71 76 85 88 90 91 90 90 92 94 94 94 95 95 95 95
96 96 95 89 93 95 86 94 96 92 94 89 85 82 77 85 89 91 92 91 89 90 88 89 88 80 87 70 72 84 87 91 90 89 91 84 88 86 85 92 94 94 96
95 93 93 95 97 96 93 96 98 98 99 92 86 88 90 85 89 85 88 89 89 86 86 87 87 86 79 80 71 73 88 91 90 90 91 89 80 81 85 86 92 92 90
94 93 94 96 97 96 93 97 98 97 97 96 95 95 95 94 93 90 89 90 87 88 86 86 84 83 85 72 73 72 74 79 87 91 87 82 75 79 78 83 84 84 86
92 92 93 96 98 97 96 96 98 96 95 94 96 96 94 96 96 96 92 92 86 89 89 85 88 87 82 84 74 73 73 75 85 82 78 74 75 76 83 74 78 84 90
86 85 91 96 98 98 96 97 97 95 92 95 97 95 95 94 95 92 88 91 90 89 88 91 93 89 85 84 83 84 87 83 82 83 83 83 82 76 77 80 80 83 87
80 81 84 86 95 94 95 96 96 91 90 91 92 93 89 96 95 93 92 83 83 77 88 87 90 88 87 80 68 72 79 81 80 79 77 82 82 83 82 79 76 76 80
74 78 77 79 85 85 85 79 79 77 85 79 81 93 90 93 88 93 88 72 64 61 61 60 70 85 64 60 60 62 62 64 69 77 85 88 90 88 85 85 82 80 80